Time,TemperatureF,DewpointF,PressureIn,WindDirection,WindDirectionDegrees,WindSpeedMPH,WindSpeedGustMPH,Humidity,HourlyPrecipIn,Conditions,Clouds,dailyrainin,SoftwareType,DateUTC
2013-04-12 00:00:00,78.3,69.3,29.89,South,176,6.5,14.5,74,0.00,,---,0.00,VWS V14.01,2013-04-12 04:00:00,
2013-04-12 00:01:00,76.7,69.6,29.91,SSW,205,1.2,4.0,79,0.00,,---,0.00,VWS V14.01,2013-04-12 04:01:00,
2013-04-12 00:05:00,78.5,69.8,29.90,SE,145,9.2,13.7,75,0.00,,---,0.00,VWS V14.01,2013-04-12 04:05:00,
2013-04-12 00:10:00,78.4,69.8,29.89,South,173,6.0,12.1,75,0.00,,---,0.00,VWS V14.01,2013-04-12 04:10:00,
2013-04-12 00:15:00,78.1,69.6,29.90,SE,143,3.7,8.8,75,0.00,,---,0.00,VWS V14.01,2013-04-12 04:15:00,
2013-04-12 00:20:00,77.8,69.5,29.89,South,181,2.9,9.4,76,0.00,,---,0.00,VWS V14.01,2013-04-12 04:20:00,
2013-04-12 00:25:00,77.4,69.4,29.90,SSW,193,7.0,10.3,76,0.00,,---,0.00,VWS V14.01,2013-04-12 04:25:00,
2013-04-12 00:30:00,77.9,69.8,29.89,SE,138,4.9,8.2,76,0.00,,---,0.00,VWS V14.01,2013-04-12 04:30:00,
2013-04-12 00:35:00,76.6,69.0,29.90,SE,128,7.8,13.0,77,0.00,,---,0.00,VWS V14.01,2013-04-12 04:35:00,
2013-04-12 00:40:00,77.3,69.7,29.90,South,169,6.7,12.9,78,0.00,,---,0.00,VWS V14.01,2013-04-12 04:40:00,
2013-04-12 00:45:00,76.8,69.3,29.91,SSE,150,8.6,11.8,78,0.00,,---,0.00,VWS V14.01,2013-04-12 04:45:00,
2013-04-12 00:50:00,77.3,69.9,29.90,South,184,10.1,12.7,78,0.00,,---,0.00,VWS V14.01,2013-04-12 04:50:00,
2013-04-12 00:55:00,77.1,70.1,29.91,SSE,155,9.4,13.5,79,0.00,,---,0.00,VWS V14.01,2013-04-12 04:55:00,
2013-04-12 01:00:00,76.6,69.8,29.91,South,174,6.6,12.6,79,0.00,,---,0.00,VWS V14.01,2013-04-12 05:00:00,
2013-04-12 01:05:00,77.3,70.7,29.91,ESE,117,9.4,10.7,80,0.00,,---,0.00,VWS V14.01,2013-04-12 05:05:00,
2013-04-12 01:10:00,76.8,70.2,29.91,SSE,148,4.3,17.7,80,0.00,,---,0.00,VWS V14.01,2013-04-12 05:10:00,
2013-04-12 01:15:00,76.7,70.2,29.91,SSE,159,4.5,10.7,80,0.00,,---,0.00,VWS V14.01,2013-04-12 05:15:00,
2013-04-12 01:20:00,76.7,70.2,29.91,South,172,6.3,7.5,80,0.00,,---,0.00,VWS V14.01,2013-04-12 05:20:00,
2013-04-12 01:25:00,77.1,70.5,29.91,SSW,198,9.4,9.9,80,0.00,,---,0.00,VWS V14.01,2013-04-12 05:25:00,
2013-04-12 01:30:00,76.9,70.6,29.92,South,184,4.5,9.0,81,0.00,,---,0.00,VWS V14.01,2013-04-12 05:30:00,
2013-04-12 01:35:00,76.1,69.8,29.92,South,187,5.5,9.8,81,0.00,,---,0.00,VWS V14.01,2013-04-12 05:35:00,
2013-04-12 01:40:00,76.8,70.6,29.92,South,191,8.5,9.1,81,0.00,,---,0.00,VWS V14.01,2013-04-12 05:40:00,
2013-04-12 01:45:00,76.2,70.2,29.92,SE,138,8.3,17.0,82,0.00,,---,0.00,VWS V14.01,2013-04-12 05:45:00,
2013-04-12 01:50:00,76.1,70.1,29.91,South,188,4.9,6.6,82,0.00,,---,0.00,VWS V14.01,2013-04-12 05:50:00,
2013-04-12 01:55:00,76.9,70.9,29.91,SSE,163,4.3,7.3,82,0.00,,---,0.00,VWS V14.01,2013-04-12 05:55:00,
2013-04-12 02:00:00,76.7,71.0,29.91,SSW,205,5.1,12.6,82,0.00,,---,0.00,VWS V14.01,2013-04-12 06:00:00,
2013-04-12 02:05:00,76.5,70.7,29.91,SSE,156,6.8,13.8,82,0.00,,---,0.00,VWS V14.01,2013-04-12 06:05:00,
2013-04-12 02:10:00,76.1,70.5,29.91,SE,129,4.0,7.6,83,0.00,,---,0.00,VWS V14.01,2013-04-12 06:10:00,
2013-04-12 02:15:00,76.8,71.3,29.90,SSW,194,3.4,9.7,83,0.00,,---,0.00,VWS V14.01,2013-04-12 06:15:00,
2013-04-12 02:20:00,75.9,70.6,29.90,South,173,12.7,14.7,84,0.00,,---,0.00,VWS V14.01,2013-04-12 06:20:00,
2013-04-12 02:25:00,76.7,71.6,29.90,South,179,3.5,9.8,84,0.00,,---,0.00,VWS V14.01,2013-04-12 06:25:00,
2013-04-12 02:30:00,76.5,71.5,29.90,SSE,165,10.3,10.3,85,0.00,,---,0.00,VWS V14.01,2013-04-12 06:30:00,
2013-04-12 02:35:00,76.4,71.5,29.90,South,173,7.1,12.5,85,0.00,,---,0.00,VWS V14.01,2013-04-12 06:35:00,
2013-04-12 02:40:00,76.1,71.2,29.90,SSE,148,11.9,11.9,85,0.00,,---,0.00,VWS V14.01,2013-04-12 06:40:00,
2013-04-12 02:45:00,76.3,71.5,29.90,SSE,163,5.0,8.8,85,0.00,,---,0.00,VWS V14.01,2013-04-12 06:45:00,
2013-04-12 02:50:00,75.5,70.9,29.90,SE,145,6.3,9.6,86,0.00,,---,0.00,VWS V14.01,2013-04-12 06:50:00,
2013-04-12 02:55:00,76.4,71.8,29.90,South,169,6.5,9.9,86,0.00,,---,0.00,VWS V14.01,2013-04-12 06:55:00,
2013-04-12 03:00:00,76.2,71.8,29.90,SSW,194,4.5,6.1,86,0.00,,---,0.00,VWS V14.01,2013-04-12 07:00:00,
2013-04-12 03:05:00,76.2,71.9,29.89,ESE,104,7.1,10.3,87,0.00,,---,0.00,VWS V14.01,2013-04-12 07:05:00,
2013-04-12 03:10:00,75.9,71.6,29.89,SE,139,4.3,11.5,87,0.00,,---,0.00,VWS V14.01,2013-04-12 07:10:00,
2013-04-12 03:15:00,76.4,72.3,29.89,South,183,11.2,12.2,87,0.00,,---,0.00,VWS V14.01,2013-04-12 07:15:00,
2013-04-12 03:20:00,75.7,71.7,29.89,SSW,193,6.3,6.3,87,0.00,,---,0.00,VWS V14.01,2013-04-12 07:20:00,
2013-04-12 03:25:00,75.3,71.5,29.89,SE,145,8.1,8.1,88,0.00,,---,0.00,VWS V14.01,2013-04-12 07:25:00,
2013-04-12 03:30:00,76.1,72.2,29.89,SSE,162,3.8,5.8,88,0.00,,---,0.00,VWS V14.01,2013-04-12 07:30:00,
2013-04-12 03:35:00,75.8,72.0,29.90,SSE,166,2.9,5.8,88,0.00,,---,0.00,VWS V14.01,2013-04-12 07:35:00,
2013-04-12 03:40:00,75.1,71.5,29.90,SE,125,6.0,12.9,88,0.00,,---,0.00,VWS V14.01,2013-04-12 07:40:00,
2013-04-12 03:45:00,75.1,71.4,29.90,South,190,7.0,8.9,88,0.00,,---,0.00,VWS V14.01,2013-04-12 07:45:00,
2013-04-12 03:50:00,75.3,71.8,29.90,SSE,165,8.7,9.8,89,0.00,,---,0.00,VWS V14.01,2013-04-12 07:50:00,
2013-04-12 03:55:00,75.9,72.4,29.90,South,176,6.0,9.4,89,0.00,,---,0.00,VWS V14.01,2013-04-12 07:55:00,
2013-04-12 04:00:00,75.9,72.5,29.90,SSE,155,5.3,8.0,89,0.00,,---,0.00,VWS V14.01,2013-04-12 08:00:00,
2013-04-12 04:05:00,75.1,71.8,29.90,South,170,2.6,13.9,89,0.00,,---,0.00,VWS V14.01,2013-04-12 08:05:00,
2013-04-12 04:10:00,75.4,72.1,29.90,South,183,4.3,6.6,89,0.00,,---,0.00,VWS V14.01,2013-04-12 08:10:00,
2013-04-12 04:15:00,75.8,72.6,29.90,South,187,7.1,8.3,90,0.00,,---,0.00,VWS V14.01,2013-04-12 08:15:00,
2013-04-12 04:20:00,75.4,72.3,29.90,SW,219,9.6,10.9,90,0.00,,---,0.00,VWS V14.01,2013-04-12 08:20:00,
2013-04-12 04:25:00,75.7,72.6,29.90,South,176,3.4,8.5,90,0.00,,---,0.00,VWS V14.01,2013-04-12 08:25:00,
2013-04-12 04:30:00,75.9,72.8,29.90,SE,143,1.4,5.5,90,0.00,,---,0.00,VWS V14.01,2013-04-12 08:30:00,
2013-04-12 04:35:00,75.4,72.3,29.90,South,184,2.4,13.2,90,0.00,,---,0.00,VWS V14.01,2013-04-12 08:35:00,
2013-04-12 04:40:00,75.8,72.8,29.90,South,169,2.8,8.1,90,0.00,,---,0.00,VWS V14.01,2013-04-12 08:40:00,
2013-04-12 04:45:00,75.8,72.8,29.90,SE,135,4.2,10.1,90,0.00,,---,0.00,VWS V14.01,2013-04-12 08:45:00,
2013-04-12 04:50:00,75.6,72.5,29.89,South,170,10.4,11.1,90,0.00,,---,0.00,VWS V14.01,2013-04-12 08:50:00,
2013-04-12 04:55:00,75.3,72.3,29.90,South,174,8.1,9.1,90,0.00,,---,0.00,VWS V14.01,2013-04-12 08:55:00,
2013-04-12 05:00:00,75.4,72.4,29.90,West,262,1.7,8.3,90,0.00,,---,0.00,VWS V14.01,2013-04-12 09:00:00,
2013-04-12 05:05:00,75.0,72.0,29.89,South,172,7.5,8.4,90,0.00,,---,0.00,VWS V14.01,2013-04-12 09:05:00,
2013-04-12 05:10:00,75.9,73.1,29.89,SSE,155,11.0,16.1,91,0.00,,---,0.00,VWS V14.01,2013-04-12 09:10:00,
2013-04-12 05:15:00,75.9,72.8,29.89,SSE,152,3.6,8.3,90,0.00,,---,0.00,VWS V14.01,2013-04-12 09:15:00,
2013-04-12 05:20:00,75.2,72.0,29.89,South,183,9.3,11.6,90,0.00,,---,0.00,VWS V14.01,2013-04-12 09:20:00,
2013-04-12 05:25:00,75.8,72.7,29.89,SSW,212,5.3,9.1,90,0.00,,---,0.00,VWS V14.01,2013-04-12 09:25:00,
2013-04-12 05:30:00,75.9,72.8,29.89,South,180,1.8,4.4,90,0.00,,---,0.00,VWS V14.01,2013-04-12 09:30:00,
2013-04-12 05:35:00,75.4,72.4,29.89,SSW,208,5.9,9.8,90,0.00,,---,0.00,VWS V14.01,2013-04-12 09:35:00,
2013-04-12 05:40:00,75.9,72.8,29.88,SW,214,8.8,9.5,90,0.00,,---,0.00,VWS V14.01,2013-04-12 09:40:00,
2013-04-12 05:45:00,75.9,72.9,29.89,SW,224,9.5,13.4,90,0.00,,---,0.00,VWS V14.01,2013-04-12 09:45:00,
2013-04-12 05:50:00,75.7,72.7,29.88,South,183,7.9,11.4,90,0.00,,---,0.00,VWS V14.01,2013-04-12 09:50:00,
2013-04-12 05:55:00,75.5,72.6,29.88,South,179,7.3,12.0,91,0.00,,---,0.00,VWS V14.01,2013-04-12 09:55:00,
2013-04-12 06:00:00,75.3,72.4,29.88,SSW,193,5.3,8.5,91,0.00,,---,0.00,VWS V14.01,2013-04-12 10:00:00,
2013-04-12 06:05:00,75.5,72.7,29.88,South,187,5.8,13.3,91,0.00,,---,0.00,VWS V14.01,2013-04-12 10:05:00,
2013-04-12 06:10:00,75.1,72.3,29.88,South,183,5.8,11.5,91,0.00,,---,0.00,VWS V14.01,2013-04-12 10:10:00,
2013-04-12 06:15:00,75.4,72.7,29.88,South,170,4.8,11.0,91,0.00,,---,0.00,VWS V14.01,2013-04-12 10:15:00,
2013-04-12 06:20:00,75.6,72.9,29.88,SW,219,5.7,7.5,91,0.00,,---,0.00,VWS V14.01,2013-04-12 10:20:00,
2013-04-12 06:25:00,75.2,72.6,29.88,South,190,3.4,8.0,92,0.00,,---,0.00,VWS V14.01,2013-04-12 10:25:00,
2013-04-12 06:30:00,75.0,72.5,29.88,South,179,7.1,7.4,92,0.00,,---,0.00,VWS V14.01,2013-04-12 10:30:00,
2013-04-12 06:35:00,75.0,72.6,29.88,South,177,12.4,13.6,92,0.00,,---,0.00,VWS V14.01,2013-04-12 10:35:00,
2013-04-12 06:40:00,75.3,72.8,29.87,South,190,9.4,10.0,92,0.00,,---,0.00,VWS V14.01,2013-04-12 10:40:00,
2013-04-12 06:45:00,75.2,72.8,29.88,SSW,211,6.9,8.3,92,0.00,,---,0.00,VWS V14.01,2013-04-12 10:45:00,
2013-04-12 06:50:00,74.8,72.5,29.87,South,172,9.1,12.1,92,0.00,,---,0.00,VWS V14.01,2013-04-12 10:50:00,
2013-04-12 06:55:00,75.0,72.8,29.87,SSE,160,8.3,9.8,93,0.00,,---,0.00,VWS V14.01,2013-04-12 10:55:00,
2013-04-12 07:00:00,75.2,73.1,29.87,SSE,163,8.0,13.7,93,0.00,,---,0.00,VWS V14.01,2013-04-12 11:00:00,
2013-04-12 07:05:00,75.1,73.2,29.87,SSE,166,4.7,14.4,94,0.00,,---,0.00,VWS V14.01,2013-04-12 11:05:00,
2013-04-12 07:10:00,74.4,72.4,29.87,SSW,205,4.9,12.5,94,0.00,,---,0.00,VWS V14.01,2013-04-12 11:10:00,
2013-04-12 07:15:00,74.8,72.8,29.87,WSW,238,3.8,13.0,94,0.00,,---,0.00,VWS V14.01,2013-04-12 11:15:00,
2013-04-12 07:20:00,75.3,73.3,29.87,South,187,9.2,12.9,94,0.00,,---,0.00,VWS V14.01,2013-04-12 11:20:00,
2013-04-12 07:25:00,75.2,73.2,29.87,WSW,242,3.5,10.1,94,0.00,,---,0.00,VWS V14.01,2013-04-12 11:25:00,
2013-04-12 07:30:00,74.5,72.5,29.87,SW,224,8.1,10.1,94,0.00,,---,0.00,VWS V14.01,2013-04-12 11:30:00,
2013-04-12 07:35:00,74.5,72.7,29.87,SSW,195,5.2,17.5,94,0.00,,---,0.00,VWS V14.01,2013-04-12 11:35:00,
2013-04-12 07:40:00,74.0,72.0,29.86,SSE,160,11.2,14.8,93,0.00,,---,0.00,VWS V14.01,2013-04-12 11:40:00,
2013-04-12 07:45:00,75.3,73.4,29.87,SSW,200,6.2,17.3,94,0.00,,---,0.00,VWS V14.01,2013-04-12 11:45:00,
2013-04-12 07:50:00,75.4,73.5,29.87,SSE,167,4.4,17.8,94,0.00,,---,0.00,VWS V14.01,2013-04-12 11:50:00,
2013-04-12 07:55:00,75.4,73.4,29.87,SSW,202,9.0,14.2,93,0.00,,---,0.00,VWS V14.01,2013-04-12 11:55:00,
2013-04-12 08:00:00,75.0,73.1,29.87,SSE,148,12.4,18.7,94,0.00,,---,0.00,VWS V14.01,2013-04-12 12:00:00,
2013-04-12 08:05:00,75.1,72.9,29.87,SSE,163,5.3,12.4,93,0.00,,---,0.00,VWS V14.01,2013-04-12 12:05:00,
2013-04-12 08:10:00,75.3,73.2,29.88,South,174,4.2,18.7,93,0.00,,---,0.00,VWS V14.01,2013-04-12 12:10:00,
2013-04-12 08:15:00,75.6,73.4,29.88,South,170,16.9,18.5,93,0.00,,---,0.00,VWS V14.01,2013-04-12 12:15:00,
2013-04-12 08:20:00,75.4,73.1,29.87,South,186,9.8,15.6,92,0.00,,---,0.00,VWS V14.01,2013-04-12 12:20:00,
2013-04-12 08:25:00,75.7,73.1,29.87,South,181,11.0,11.0,92,0.00,,---,0.00,VWS V14.01,2013-04-12 12:25:00,
2013-04-12 08:30:00,75.8,73.2,29.87,SE,135,6.5,15.7,92,0.00,,---,0.00,VWS V14.01,2013-04-12 12:30:00,
2013-04-12 08:35:00,76.2,73.4,29.87,SSE,160,10.9,15.3,91,0.00,,---,0.00,VWS V14.01,2013-04-12 12:35:00,
2013-04-12 08:40:00,75.5,72.7,29.87,SSW,207,3.4,13.1,91,0.00,,---,0.00,VWS V14.01,2013-04-12 12:40:00,
2013-04-12 08:45:00,75.8,73.0,29.87,SSW,205,6.6,8.9,91,0.00,,---,0.00,VWS V14.01,2013-04-12 12:45:00,
2013-04-12 08:50:00,75.8,72.9,29.87,South,183,12.6,13.1,91,0.00,,---,0.00,VWS V14.01,2013-04-12 12:50:00,
2013-04-12 08:55:00,75.7,72.6,29.86,South,173,11.7,14.6,90,0.00,,---,0.00,VWS V14.01,2013-04-12 12:55:00,
2013-04-12 09:00:00,76.1,73.0,29.86,South,187,9.2,13.3,90,0.00,,---,0.00,VWS V14.01,2013-04-12 13:00:00,
2013-04-12 09:05:00,76.2,73.1,29.86,SSE,150,10.9,16.5,90,0.00,,---,0.00,VWS V14.01,2013-04-12 13:05:00,
2013-04-12 09:10:00,76.8,73.6,29.85,South,177,7.7,18.0,90,0.00,,---,0.00,VWS V14.01,2013-04-12 13:10:00,
2013-04-12 09:15:00,77.0,73.6,29.86,SSW,205,5.5,11.1,89,0.00,,---,0.00,VWS V14.01,2013-04-12 13:15:00,
2013-04-12 09:20:00,76.6,73.1,29.86,SE,125,5.8,20.9,89,0.00,,---,0.00,VWS V14.01,2013-04-12 13:20:00,
2013-04-12 09:25:00,77.1,73.6,29.86,South,169,10.7,16.5,89,0.00,,---,0.00,VWS V14.01,2013-04-12 13:25:00,
2013-04-12 09:30:00,76.7,73.1,29.86,West,259,4.5,16.4,88,0.00,,---,0.00,VWS V14.01,2013-04-12 13:30:00,
2013-04-12 09:35:00,76.8,72.9,29.86,SSW,200,6.0,12.2,88,0.00,,---,0.00,VWS V14.01,2013-04-12 13:35:00,
2013-04-12 09:40:00,76.3,72.5,29.86,South,191,17.4,20.0,88,0.00,,---,0.00,VWS V14.01,2013-04-12 13:40:00,
2013-04-12 09:45:00,77.1,73.2,29.87,South,174,12.9,19.3,88,0.00,,---,0.00,VWS V14.01,2013-04-12 13:45:00,
2013-04-12 09:50:00,77.4,73.3,29.87,SSE,166,4.0,12.7,87,0.00,,---,0.00,VWS V14.01,2013-04-12 13:50:00,
2013-04-12 09:55:00,77.0,72.8,29.88,South,188,2.4,13.7,87,0.00,,---,0.00,VWS V14.01,2013-04-12 13:55:00,
2013-04-12 10:00:00,77.5,73.2,29.87,SSW,197,6.6,15.2,87,0.00,,---,0.00,VWS V14.01,2013-04-12 14:00:00,
2013-04-12 10:05:00,77.1,72.8,29.88,SSW,193,12.5,12.5,87,0.00,,---,0.00,VWS V14.01,2013-04-12 14:05:00,
2013-04-12 10:10:00,77.7,73.2,29.87,SSE,156,5.4,6.2,86,0.00,,---,0.00,VWS V14.01,2013-04-12 14:10:00,
2013-04-12 10:15:00,76.8,72.3,29.87,South,180,1.9,9.8,86,0.00,,---,0.00,VWS V14.01,2013-04-12 14:15:00,
2013-04-12 10:20:00,77.3,72.8,29.87,SE,135,1.4,12.6,86,0.00,,---,0.00,VWS V14.01,2013-04-12 14:20:00,
2013-04-12 10:25:00,77.3,72.7,29.88,SW,218,3.0,10.4,86,0.00,,---,0.00,VWS V14.01,2013-04-12 14:25:00,
2013-04-12 10:30:00,77.0,72.2,29.89,SW,233,6.6,7.2,85,0.00,,---,0.00,VWS V14.01,2013-04-12 14:30:00,
2013-04-12 10:35:00,77.1,72.4,29.90,SSW,211,8.1,8.1,85,0.00,,---,0.00,VWS V14.01,2013-04-12 14:35:00,
2013-04-12 10:40:00,77.9,73.1,29.89,South,177,1.7,1.9,85,0.00,,---,0.00,VWS V14.01,2013-04-12 14:40:00,
2013-04-12 10:45:00,78.1,73.2,29.89,SSW,194,8.7,8.7,85,0.00,,---,0.00,VWS V14.01,2013-04-12 14:45:00,
2013-04-12 10:50:00,78.0,73.0,29.88,South,184,6.2,13.7,85,0.00,,---,0.00,VWS V14.01,2013-04-12 14:50:00,
2013-04-12 10:55:00,78.0,72.8,29.89,South,187,12.7,16.0,84,0.00,,---,0.00,VWS V14.01,2013-04-12 14:55:00,
2013-04-12 11:00:00,78.4,72.7,29.89,SSW,204,11.4,13.6,83,0.00,,---,0.00,VWS V14.01,2013-04-12 15:00:00,
2013-04-12 11:05:00,78.7,72.8,29.90,South,181,9.0,15.7,82,0.00,,---,0.00,VWS V14.01,2013-04-12 15:05:00,
2013-04-12 11:10:00,77.9,71.9,29.90,South,184,13.0,13.0,82,0.00,,---,0.00,VWS V14.01,2013-04-12 15:10:00,
2013-04-12 11:15:00,78.1,72.0,29.89,SSW,198,9.3,14.3,82,0.00,,---,0.00,VWS V14.01,2013-04-12 15:15:00,
2013-04-12 11:20:00,78.9,72.4,29.89,SSW,212,5.4,12.2,80,0.00,,---,0.00,VWS V14.01,2013-04-12 15:20:00,
2013-04-12 11:25:00,78.3,71.6,29.90,SSW,212,8.4,9.7,80,0.00,,---,0.00,VWS V14.01,2013-04-12 15:25:00,
2013-04-12 11:30:00,79.4,72.6,29.89,SSW,207,10.9,10.9,80,0.00,,---,0.00,VWS V14.01,2013-04-12 15:30:00,
2013-04-12 11:35:00,79.8,72.6,29.89,SW,236,9.7,9.7,79,0.00,,---,0.00,VWS V14.01,2013-04-12 15:35:00,
2013-04-12 11:40:00,80.1,72.6,29.89,SSW,198,8.0,13.2,78,0.00,,---,0.00,VWS V14.01,2013-04-12 15:40:00,
2013-04-12 11:45:00,79.1,71.5,29.89,SSE,163,6.9,6.9,78,0.00,,---,0.00,VWS V14.01,2013-04-12 15:45:00,
2013-04-12 11:50:00,80.4,72.1,29.88,SW,217,6.5,14.2,76,0.00,,---,0.00,VWS V14.01,2013-04-12 15:50:00,
2013-04-12 11:55:00,80.5,72.0,29.88,SSW,193,10.9,15.7,75,0.00,,---,0.00,VWS V14.01,2013-04-12 15:55:00,
2013-04-12 12:00:00,79.5,70.8,29.88,SSE,165,2.6,14.7,75,0.00,,---,0.00,VWS V14.01,2013-04-12 16:00:00,
2013-04-12 12:05:00,80.5,71.3,29.87,SSE,167,16.2,18.6,74,0.00,,---,0.00,VWS V14.01,2013-04-12 16:05:00,
2013-04-12 12:10:00,80.5,71.2,29.88,SSE,149,8.0,12.4,73,0.00,,---,0.00,VWS V14.01,2013-04-12 16:10:00,
2013-04-12 12:15:00,81.4,71.7,29.88,WSW,238,9.6,18.1,72,0.00,,---,0.00,VWS V14.01,2013-04-12 16:15:00,
2013-04-12 12:20:00,80.9,70.5,29.88,South,191,12.9,16.5,71,0.00,,---,0.00,VWS V14.01,2013-04-12 16:20:00,
2013-04-12 12:25:00,81.2,70.7,29.87,South,187,6.5,16.1,71,0.00,,---,0.00,VWS V14.01,2013-04-12 16:25:00,
2013-04-12 12:30:00,81.5,70.5,29.86,South,174,6.6,17.9,69,0.00,,---,0.00,VWS V14.01,2013-04-12 16:30:00,
2013-04-12 12:35:00,81.4,70.3,29.87,South,177,16.2,23.7,69,0.00,,---,0.00,VWS V14.01,2013-04-12 16:35:00,
2013-04-12 12:40:00,81.7,70.4,29.86,South,180,4.0,18.6,69,0.00,,---,0.00,VWS V14.01,2013-04-12 16:40:00,
2013-04-12 12:45:00,81.5,70.4,29.85,South,181,15.2,15.5,69,0.00,,---,0.00,VWS V14.01,2013-04-12 16:45:00,
2013-04-12 12:50:00,81.6,70.0,29.85,South,172,4.8,14.7,68,0.00,,---,0.00,VWS V14.01,2013-04-12 16:50:00,
2013-04-12 12:55:00,82.0,70.3,29.85,ESE,121,15.3,20.7,68,0.00,,---,0.00,VWS V14.01,2013-04-12 16:55:00,
2013-04-12 13:00:00,82.1,70.5,29.85,South,174,4.1,13.7,68,0.00,,---,0.00,VWS V14.01,2013-04-12 17:00:00,
2013-04-12 13:05:00,81.7,69.7,29.85,SSW,195,3.2,10.1,67,0.00,,---,0.00,VWS V14.01,2013-04-12 17:05:00,
2013-04-12 13:10:00,82.9,70.1,29.87,South,177,4.7,12.1,65,0.00,,---,0.00,VWS V14.01,2013-04-12 17:10:00,
2013-04-12 13:15:00,82.0,68.9,29.87,SW,219,9.3,13.9,65,0.00,,---,0.00,VWS V14.01,2013-04-12 17:15:00,
2013-04-12 13:20:00,83.2,70.4,29.87,ESE,120,0.8,4.2,65,0.00,,---,0.00,VWS V14.01,2013-04-12 17:20:00,
2013-04-12 13:25:00,83.5,70.0,29.87,SW,219,8.3,13.9,64,0.00,,---,0.00,VWS V14.01,2013-04-12 17:25:00,
2013-04-12 13:30:00,83.4,69.3,29.87,South,181,6.5,12.6,62,0.00,,---,0.00,VWS V14.01,2013-04-12 17:30:00,
2013-04-12 13:35:00,83.5,69.6,29.87,SSE,165,7.6,10.4,63,0.00,,---,0.00,VWS V14.01,2013-04-12 17:35:00,
2013-04-12 13:40:00,83.5,69.4,29.87,SSE,159,9.3,14.6,63,0.00,,---,0.00,VWS V14.01,2013-04-12 17:40:00,
2013-04-12 13:45:00,82.2,68.3,29.87,SSW,202,9.6,12.7,63,0.00,,---,0.00,VWS V14.01,2013-04-12 17:45:00,
2013-04-12 13:50:00,82.0,68.4,29.87,SSW,200,3.6,5.5,64,0.00,,---,0.00,VWS V14.01,2013-04-12 17:50:00,
2013-04-12 13:55:00,83.3,69.8,29.87,SW,215,9.8,12.8,64,0.00,,---,0.00,VWS V14.01,2013-04-12 17:55:00,
2013-04-12 14:00:00,82.8,69.6,29.86,South,179,6.0,12.6,64,0.00,,---,0.00,VWS V14.01,2013-04-12 18:00:00,
2013-04-12 14:05:00,82.6,69.5,29.86,West,281,6.8,14.7,65,0.00,,---,0.00,VWS V14.01,2013-04-12 18:05:00,
2013-04-12 14:10:00,83.3,70.1,29.85,South,187,7.4,9.2,64,0.00,,---,0.00,VWS V14.01,2013-04-12 18:10:00,
2013-04-12 14:15:00,83.5,70.0,29.85,SSW,212,9.8,11.7,64,0.00,,---,0.00,VWS V14.01,2013-04-12 18:15:00,
2013-04-12 14:20:00,83.5,70.0,29.85,South,169,4.3,12.7,64,0.00,,---,0.00,VWS V14.01,2013-04-12 18:20:00,
2013-04-12 14:25:00,83.5,69.3,29.85,SSE,162,4.8,6.8,62,0.00,,---,0.00,VWS V14.01,2013-04-12 18:25:00,
2013-04-12 15:26:00,83.7,68.4,29.84,WSW,238,7.3,8.7,60,0.00,,---,0.00,VWS V14.01,2013-04-12 19:26:00,
2013-04-12 15:31:00,84.4,68.9,29.84,South,190,3.8,6.2,60,0.00,,---,0.00,VWS V14.01,2013-04-12 19:31:00,
2013-04-12 15:36:00,84.4,68.5,29.84,SW,231,4.5,7.1,59,0.00,,---,0.00,VWS V14.01,2013-04-12 19:36:00,
2013-04-12 15:41:00,84.2,67.9,29.84,SW,231,6.2,15.7,58,0.00,,---,0.00,VWS V14.01,2013-04-12 19:41:00,
2013-04-12 15:46:00,83.4,67.2,29.84,SSW,198,8.0,14.4,58,0.00,,---,0.00,VWS V14.01,2013-04-12 19:46:00,
2013-04-12 15:52:00,84.1,67.9,29.83,SSW,212,4.9,6.0,58,0.00,,---,0.00,VWS V14.01,2013-04-12 19:52:00,
2013-04-12 15:57:00,83.8,67.2,29.83,SSW,200,7.8,10.2,57,0.00,,---,0.00,VWS V14.01,2013-04-12 19:57:00,
2013-04-12 16:02:00,84.8,68.4,29.83,South,170,4.8,6.8,58,0.00,,---,0.00,VWS V14.01,2013-04-12 20:02:00,
2013-04-12 16:07:00,84.7,67.9,29.83,SSW,205,7.5,8.0,57,0.00,,---,0.00,VWS V14.01,2013-04-12 20:07:00,
2013-04-12 16:12:00,85.1,68.1,29.83,South,181,16.7,19.0,57,0.00,,---,0.00,VWS V14.01,2013-04-12 20:12:00,
2013-04-12 16:17:00,85.3,67.5,29.83,SSW,210,7.0,13.6,55,0.00,,---,0.00,VWS V14.01,2013-04-12 20:17:00,
2013-04-12 16:22:00,84.6,67.0,29.83,SSW,212,7.0,17.4,56,0.00,,---,0.00,VWS V14.01,2013-04-12 20:22:00,
2013-04-12 16:27:00,85.1,67.7,29.83,SW,218,5.5,8.1,56,0.00,,---,0.00,VWS V14.01,2013-04-12 20:27:00,
2013-04-12 16:32:00,84.1,66.2,29.84,SSW,200,13.5,15.1,55,0.00,,---,0.00,VWS V14.01,2013-04-12 20:32:00,
2013-04-12 16:37:00,84.3,66.3,29.84,South,187,8.6,15.0,55,0.00,,---,0.00,VWS V14.01,2013-04-12 20:37:00,
2013-04-12 16:42:00,84.0,65.8,29.84,SW,221,10.4,19.0,54,0.00,,---,0.00,VWS V14.01,2013-04-12 20:42:00,
2013-04-12 16:47:00,84.2,66.2,29.84,WSW,238,9.3,11.5,55,0.00,,---,0.00,VWS V14.01,2013-04-12 20:47:00,
2013-04-12 16:52:00,84.2,66.8,29.84,NW,307,3.5,11.3,56,0.00,,---,0.00,VWS V14.01,2013-04-12 20:52:00,
2013-04-12 16:57:00,83.8,66.3,29.84,SSW,211,8.9,13.0,56,0.00,,---,0.00,VWS V14.01,2013-04-12 20:57:00,
2013-04-12 17:02:00,83.4,66.0,29.83,SW,221,10.9,13.5,56,0.00,,---,0.00,VWS V14.01,2013-04-12 21:02:00,
2013-04-12 17:07:00,84.1,66.9,29.83,SW,224,7.5,8.9,56,0.00,,---,0.00,VWS V14.01,2013-04-12 21:07:00,
2013-04-12 17:12:00,84.0,66.8,29.83,SSE,165,6.0,12.3,56,0.00,,---,0.00,VWS V14.01,2013-04-12 21:12:00,
2013-04-12 17:17:00,83.7,67.0,29.83,SW,228,9.6,21.3,57,0.00,,---,0.00,VWS V14.01,2013-04-12 21:17:00,
2013-04-12 17:22:00,82.9,66.7,29.83,SW,214,12.1,15.9,58,0.00,,---,0.00,VWS V14.01,2013-04-12 21:22:00,
2013-04-12 17:27:00,82.9,66.6,29.84,SW,233,8.8,12.2,58,0.00,,---,0.00,VWS V14.01,2013-04-12 21:27:00,
2013-04-12 17:32:00,83.3,67.2,29.83,SW,232,10.6,11.6,58,0.00,,---,0.00,VWS V14.01,2013-04-12 21:32:00,
2013-04-12 17:37:00,82.5,66.8,29.84,SW,218,8.0,12.3,59,0.00,,---,0.00,VWS V14.01,2013-04-12 21:37:00,
2013-04-12 17:42:00,83.1,67.3,29.84,SW,235,6.5,11.4,59,0.00,,---,0.00,VWS V14.01,2013-04-12 21:42:00,
2013-04-12 17:47:00,83.1,67.7,29.83,SSW,195,6.3,7.1,60,0.00,,---,0.00,VWS V14.01,2013-04-12 21:47:00,
2013-04-12 17:52:00,83.1,67.7,29.84,WSW,245,6.6,8.8,60,0.00,,---,0.00,VWS V14.01,2013-04-12 21:52:00,
2013-04-12 17:57:00,82.6,67.2,29.84,WSW,239,7.0,8.1,60,0.00,,---,0.00,VWS V14.01,2013-04-12 21:57:00,
2013-04-12 18:02:00,83.3,67.9,29.85,SW,226,6.9,8.3,60,0.00,,---,0.00,VWS V14.01,2013-04-12 22:02:00,
2013-04-12 18:07:00,82.4,67.2,29.85,West,269,3.4,6.2,60,0.00,,---,0.00,VWS V14.01,2013-04-12 22:07:00,
2013-04-12 18:12:00,83.0,67.4,29.86,WSW,256,11.1,11.1,59,0.00,,---,0.00,VWS V14.01,2013-04-12 22:12:00,
2013-04-12 18:17:00,82.4,67.1,29.85,SW,218,6.1,6.7,60,0.00,,---,0.00,VWS V14.01,2013-04-12 22:17:00,
2013-04-12 18:22:00,82.2,66.8,29.85,WSW,242,7.0,8.6,60,0.00,,---,0.00,VWS V14.01,2013-04-12 22:22:00,
2013-04-12 18:27:00,82.4,67.0,29.85,SSW,198,2.3,5.0,60,0.00,,---,0.00,VWS V14.01,2013-04-12 22:27:00,
2013-04-12 18:32:00,82.3,66.8,29.85,West,260,3.1,8.4,60,0.00,,---,0.00,VWS V14.01,2013-04-12 22:32:00,
2013-04-12 18:37:00,82.5,67.2,29.85,WSW,240,5.1,5.5,60,0.00,,---,0.00,VWS V14.01,2013-04-12 22:37:00,
2013-04-12 18:42:00,82.4,67.1,29.85,SW,215,7.8,9.6,60,0.00,,---,0.00,VWS V14.01,2013-04-12 22:42:00,
2013-04-12 18:47:00,82.4,67.2,29.85,SW,217,5.8,8.1,60,0.00,,---,0.00,VWS V14.01,2013-04-12 22:47:00,
2013-04-12 18:52:00,82.3,67.3,29.84,SSW,211,1.9,7.7,60,0.00,,---,0.00,VWS V14.01,2013-04-12 22:52:00,
2013-04-12 18:57:00,81.4,66.2,29.85,SW,219,4.7,8.8,60,0.00,,---,0.00,VWS V14.01,2013-04-12 22:57:00,
2013-04-12 19:02:00,81.7,66.5,29.85,SW,219,2.4,4.3,60,0.00,,---,0.00,VWS V14.01,2013-04-12 23:02:00,
2013-04-12 19:07:00,81.2,66.1,29.86,SW,233,3.2,3.2,60,0.00,,---,0.00,VWS V14.01,2013-04-12 23:07:00,
2013-04-12 19:12:00,81.5,66.5,29.85,SW,222,5.0,5.6,60,0.00,,---,0.00,VWS V14.01,2013-04-12 23:12:00,
2013-04-12 19:17:00,81.6,66.7,29.85,West,262,3.5,3.6,61,0.00,,---,0.00,VWS V14.01,2013-04-12 23:17:00,
2013-04-12 19:22:00,81.9,67.2,29.86,WSW,249,3.2,3.3,61,0.00,,---,0.00,VWS V14.01,2013-04-12 23:22:00,
2013-04-12 19:27:00,80.8,66.2,29.87,SW,228,5.2,5.2,61,0.00,,---,0.00,VWS V14.01,2013-04-12 23:27:00,
2013-04-12 19:32:00,81.7,67.3,29.85,SSW,193,3.9,3.9,62,0.00,,---,0.00,VWS V14.01,2013-04-12 23:32:00,
2013-04-12 19:37:00,81.2,66.9,29.84,South,187,0.0,0.0,62,0.00,,---,0.00,VWS V14.01,2013-04-12 23:37:00,
2013-04-12 19:42:00,80.8,66.6,29.84,SE,145,2.7,7.0,62,0.00,,---,0.00,VWS V14.01,2013-04-12 23:42:00,
2013-04-12 19:47:00,81.1,66.9,29.85,SSE,165,0.0,0.0,62,0.00,,---,0.00,VWS V14.01,2013-04-12 23:47:00,
2013-04-12 19:52:00,80.9,66.9,29.87,SW,236,5.2,6.0,62,0.00,,---,0.00,VWS V14.01,2013-04-12 23:52:00,
2013-04-12 19:57:00,80.3,66.5,29.87,WSW,240,3.1,4.2,63,0.00,,---,0.00,VWS V14.01,2013-04-12 23:57:00,
2013-04-12 20:02:00,80.9,67.3,29.87,SW,232,2.7,2.7,63,0.00,,---,0.00,VWS V14.01,2013-04-13 00:02:00,
2013-04-12 20:07:00,80.7,67.4,29.87,SSW,208,0.0,1.6,64,0.00,,---,0.00,VWS V14.01,2013-04-13 00:07:00,
2013-04-12 20:12:00,80.2,67.1,29.87,SSW,202,1.9,6.1,64,0.00,,---,0.00,VWS V14.01,2013-04-13 00:12:00,
2013-04-12 20:17:00,80.0,67.1,29.87,South,177,2.4,4.0,65,0.00,,---,0.00,VWS V14.01,2013-04-13 00:17:00,
2013-04-12 20:22:00,80.2,67.4,29.88,SW,222,4.5,5.1,65,0.00,,---,0.00,VWS V14.01,2013-04-13 00:22:00,
2013-04-12 20:27:00,79.7,67.1,29.88,WSW,238,2.6,5.8,66,0.00,,---,0.00,VWS V14.01,2013-04-13 00:27:00,
2013-04-12 20:32:00,80.0,67.6,29.89,WSW,245,4.6,5.3,66,0.00,,---,0.00,VWS V14.01,2013-04-13 00:32:00,
2013-04-12 20:37:00,80.1,67.9,29.88,South,174,0.0,4.6,66,0.00,,---,0.00,VWS V14.01,2013-04-13 00:37:00,
2013-04-12 20:42:00,79.5,67.6,29.88,SW,235,0.0,3.7,67,0.00,,---,0.00,VWS V14.01,2013-04-13 00:42:00,
2013-04-12 20:47:00,79.9,68.0,29.87,SSE,150,3.6,5.6,67,0.00,,---,0.00,VWS V14.01,2013-04-13 00:47:00,
2013-04-12 20:52:00,79.9,68.1,29.87,South,190,5.7,5.7,67,0.00,,---,0.00,VWS V14.01,2013-04-13 00:52:00,
2013-04-12 20:57:00,79.3,67.8,29.87,South,190,4.8,5.7,68,0.00,,---,0.00,VWS V14.01,2013-04-13 00:57:00,
2013-04-12 21:02:00,79.3,67.9,29.87,SSW,205,1.7,2.4,68,0.00,,---,0.00,VWS V14.01,2013-04-13 01:02:00,
2013-04-12 21:07:00,79.5,68.3,29.88,SW,217,1.4,3.4,69,0.00,,---,0.00,VWS V14.01,2013-04-13 01:07:00,
2013-04-12 21:12:00,79.4,68.3,29.88,SSW,207,2.8,5.8,69,0.00,,---,0.00,VWS V14.01,2013-04-13 01:12:00,
2013-04-12 21:17:00,79.0,68.1,29.88,WSW,252,1.8,1.8,69,0.00,,---,0.00,VWS V14.01,2013-04-13 01:17:00,
2013-04-12 21:22:00,78.4,67.7,29.88,WSW,246,3.6,6.6,70,0.00,,---,0.00,VWS V14.01,2013-04-13 01:22:00,
2013-04-12 21:27:00,78.9,68.2,29.88,SW,225,1.6,4.0,70,0.00,,---,0.00,VWS V14.01,2013-04-13 01:27:00,
2013-04-12 21:32:00,79.1,68.5,29.88,WSW,245,0.6,2.9,70,0.00,,---,0.00,VWS V14.01,2013-04-13 01:32:00,
2013-04-12 21:37:00,78.1,67.8,29.88,SW,236,3.0,3.0,71,0.00,,---,0.00,VWS V14.01,2013-04-13 01:37:00,
2013-04-12 21:42:00,78.9,68.6,29.88,SW,222,3.6,4.7,71,0.00,,---,0.00,VWS V14.01,2013-04-13 01:42:00,
2013-04-12 21:47:00,78.7,68.6,29.88,SSW,212,0.0,0.0,71,0.00,,---,0.00,VWS V14.01,2013-04-13 01:47:00,
2013-04-12 21:52:00,77.8,67.9,29.88,SW,225,3.4,3.4,72,0.00,,---,0.00,VWS V14.01,2013-04-13 01:52:00,
2013-04-12 21:57:00,78.4,68.6,29.88,SW,217,0.0,0.0,72,0.00,,---,0.00,VWS V14.01,2013-04-13 01:57:00,
2013-04-12 22:02:00,77.7,68.0,29.88,SSW,200,0.6,0.6,72,0.00,,---,0.00,VWS V14.01,2013-04-13 02:02:00,
2013-04-12 22:07:00,78.5,68.8,29.89,WSW,248,0.0,0.0,72,0.00,,---,0.00,VWS V14.01,2013-04-13 02:07:00,
2013-04-12 22:12:00,77.8,68.3,29.89,SW,225,1.5,1.5,73,0.00,,---,0.00,VWS V14.01,2013-04-13 02:12:00,
2013-04-12 22:17:00,77.9,68.5,29.89,SW,231,3.0,5.2,73,0.00,,---,0.00,VWS V14.01,2013-04-13 02:17:00,
2013-04-12 22:22:00,77.8,68.5,29.90,SSW,201,2.2,4.7,73,0.00,,---,0.00,VWS V14.01,2013-04-13 02:22:00,
2013-04-12 22:27:00,78.3,69.2,29.90,SW,214,5.3,5.7,74,0.00,,---,0.00,VWS V14.01,2013-04-13 02:27:00,
2013-04-12 22:32:00,77.8,68.9,29.90,SW,218,6.2,6.2,74,0.00,,---,0.00,VWS V14.01,2013-04-13 02:32:00,
2013-04-12 22:37:00,77.2,68.3,29.90,SSW,212,7.8,8.3,74,0.00,,---,0.00,VWS V14.01,2013-04-13 02:37:00,
2013-04-12 22:42:00,78.2,69.5,29.90,SSW,211,4.3,6.0,75,0.00,,---,0.00,VWS V14.01,2013-04-13 02:42:00,
2013-04-12 22:47:00,77.2,68.6,29.90,SW,222,1.8,1.9,75,0.01,,---,0.01,VWS V14.01,2013-04-13 02:47:00,
2013-04-12 22:52:00,78.1,69.5,29.90,SSW,202,1.1,2.2,75,0.01,,---,0.01,VWS V14.01,2013-04-13 02:52:00,
2013-04-12 22:57:00,77.1,68.6,29.90,SSW,193,3.9,5.0,75,0.01,,---,0.01,VWS V14.01,2013-04-13 02:57:00,
2013-04-12 23:02:00,77.5,69.3,29.90,SSW,205,3.4,6.6,76,0.01,,---,0.01,VWS V14.01,2013-04-13 03:02:00,
2013-04-12 23:07:00,77.9,69.8,29.90,SW,229,1.6,1.6,76,0.01,,---,0.01,VWS V14.01,2013-04-13 03:07:00,
2013-04-12 23:12:00,78.0,70.0,29.90,SSW,207,2.2,3.9,76,0.01,,---,0.01,VWS V14.01,2013-04-13 03:12:00,
2013-04-12 23:17:00,77.0,69.1,29.90,SW,218,4.7,6.6,77,0.01,,---,0.01,VWS V14.01,2013-04-13 03:17:00,
2013-04-12 23:22:00,77.8,70.0,29.90,SSW,197,0.0,5.1,77,0.01,,---,0.01,VWS V14.01,2013-04-13 03:22:00,
2013-04-12 23:27:00,76.9,69.2,29.90,WSW,250,5.8,6.2,77,0.01,,---,0.01,VWS V14.01,2013-04-13 03:27:00,
2013-04-12 23:32:00,77.4,69.8,29.90,WSW,256,1.2,3.4,78,0.01,,---,0.01,VWS V14.01,2013-04-13 03:32:00,
2013-04-12 23:37:00,76.5,69.0,29.90,WSW,256,0.0,0.0,78,0.01,,---,0.01,VWS V14.01,2013-04-13 03:37:00,
2013-04-12 23:42:00,76.8,69.3,29.91,WSW,256,0.0,0.0,78,0.01,,---,0.01,VWS V14.01,2013-04-13 03:42:00,
2013-04-12 23:47:00,76.5,69.2,29.91,SW,214,1.6,1.6,78,0.00,,---,0.01,VWS V14.01,2013-04-13 03:47:00,
2013-04-12 23:52:00,76.7,69.4,29.90,South,186,0.0,0.0,78,0.00,,---,0.01,VWS V14.01,2013-04-13 03:52:00,
2013-04-12 23:57:00,76.5,69.3,29.91,South,186,0.0,0.0,78,0.00,,---,0.01,VWS V14.01,2013-04-13 03:57:00,